This is the latest recevied weather packets stored in our database for station/object HF3P-11. If no packets are shown the sender has not sent any weather packets the latest 1 day(s).
| Time | Temp. | Humidity | Pressure | Rain* | Wind** | Luminosity | Snow |
|---|---|---|---|---|---|---|---|
| 1777972511 | 18.33° C | 78% | 1002 hPa | 0 mm | 1.79 m/s, 39° | - | - |
| 1777972201 | 18.33° C | 78% | 1002 hPa | 0 mm | 2.24 m/s, 26° | - | - |
| 1777971911 | 17.78° C | 77% | 1002 hPa | 0 mm | 2.24 m/s, 36° | - | - |
| 1777971601 | 17.78° C | 77% | 1002 hPa | 0 mm | 1.79 m/s, 48° | - | - |
| 1777971309 | 17.78° C | 78% | 1002 hPa | 0 mm | 2.24 m/s, 38° | - | - |
| 1777971001 | 17.78° C | 78% | 1002.1 hPa | 0 mm | 2.24 m/s, 36° | - | - |
| 1777970709 | 17.78° C | 79% | 1002 hPa | 0 mm | 1.79 m/s, 46° | - | - |
| 1777970401 | 17.78° C | 78% | 1002.1 hPa | 0 mm | 1.79 m/s, 50° | - | - |
| 1777970109 | 17.78° C | 79% | 1002.3 hPa | 0 mm | 1.79 m/s, 43° | - | - |
| 1777969801 | 17.22° C | 79% | 1002.2 hPa | 0 mm | 2.24 m/s, 39° | - | - |
| 1777969508 | 17.22° C | 79% | 1002.2 hPa | 0 mm | 2.24 m/s, 48° | - | - |
| 1777969211 | 17.22° C | 80% | 1002.2 hPa | 0 mm | 2.24 m/s, 46° | - | - |
| 1777968901 | 17.22° C | 80% | 1002 hPa | 0 mm | 2.68 m/s, 42° | - | - |
| 1777968608 | 17.22° C | 80% | 1002.1 hPa | 0 mm | 2.68 m/s, 46° | - | - |
| 1777968302 | 17.22° C | 79% | 1002.1 hPa | 0 mm | 2.68 m/s, 52° | - | - |
| 1777968009 | 17.22° C | 79% | 1002.2 hPa | 0 mm | 2.68 m/s, 44° | - | - |
| 1777967701 | 17.22° C | 80% | 1002.3 hPa | 0 mm | 2.68 m/s, 39° | - | - |
| 1777967411 | 16.67° C | 80% | 1002 hPa | 0 mm | 3.13 m/s, 48° | - | - |
| 1777967101 | 17.22° C | 80% | 1002.1 hPa | 0 mm | 2.68 m/s, 39° | - | - |
| 1777966809 | 17.22° C | 80% | 1002.1 hPa | 0 mm | 2.68 m/s, 47° | - | - |
| 1777966501 | 17.22° C | 76% | 1002.1 hPa | 0 mm | 3.13 m/s, 59° | - | - |
| 1777966208 | 17.22° C | 77% | 1002.4 hPa | 0 mm | 3.13 m/s, 49° | - | - |
| 1777965902 | 17.22° C | 77% | 1002.4 hPa | 0 mm | 2.68 m/s, 37° | - | - |
| 1777965609 | 17.22° C | 78% | 1002.4 hPa | 0 mm | 2.68 m/s, 32° | - | - |
| 1777965301 | 17.22° C | 77% | 1002.6 hPa | 0 mm | 2.68 m/s, 36° | - | - |
* Rain latest hour (hover to see other rain measurements)
** Current wind speed in m/s (hover to see current wind gust speed)